RH
31 45 48 35 22 16 11 8 8 8 9 11 12 13 13 14 14 15 17 18 16 13 13 12 11 10 11 11 14 17 15 13 12 12 9 6 7 8 7 8 6 6 7 8 9 10 10
9 11 22 39 44 35 21 13 10 9 9 9 9 10 11 13 16 16 20 21 20 20 16 13 12 15 17 15 18 19 18 16 13 11 11 6 6 9 7 6 5 5 4 4 4 4 4
40 32 22 13 18 32 41 38 26 18 13 11 11 11 11 12 15 19 26 31 31 31 31 24 12 12 19 21 20 20 17 18 17 12 12 8 6 8 9 8 5 4 3 3 3 3 2
61 57 54 47 34 23 19 19 22 34 39 39 37 36 35 34 31 29 28 28 27 28 32 36 31 15 13 24 24 21 20 20 20 19 11 11 7 6 8 8 6 4 3 3 3 3 2
46 61 61 61 61 54 46 37 30 24 20 20 22 23 25 25 24 22 24 29 31 32 26 25 28 32 22 15 25 29 22 21 22 22 20 14 11 8 6 8 7 5 4 4 2 3 2
10 18 27 34 40 50 58 57 57 54 49 42 38 36 36 35 34 33 32 31 28 27 25 21 17 20 27 28 22 20 33 28 24 24 28 26 20 10 9 7 6 7 4 4 3 3 3
10 10 10 10 11 21 34 46 49 54 58 59 61 62 60 60 64 60 52 45 40 38 38 36 24 19 15 23 33 30 23 23 33 34 33 34 28 20 14 9 7 5 5 4 4 3 3
16 15 12 11 11 11 11 13 19 27 33 45 45 44 41 44 54 62 59 57 59 55 52 56 49 37 27 22 18 24 37 35 34 36 43 40 31 28 24 19 8 8 6 5 5 4 4
17 18 16 15 15 14 13 12 12 11 13 16 19 18 19 22 22 28 25 28 33 43 41 55 64 64 61 48 36 24 28 33 40 37 32 34 36 32 30 27 21 16 10 9 8 4 4
19 17 17 16 15 14 14 11 10 11 12 12 12 13 12 12 12 12 14 16 21 19 18 21 35 56 62 51 34 34 26 29 31 33 37 36 41 33 32 31 30 21 23 17 15 8 6
24 21 21 22 24 20 16 14 16 14 13 15 13 15 16 16 16 15 15 14 14 13 12 15 24 38 57 70 73 72 49 32 30 30 34 31 31 33 30 28 28 24 20 19 18 14 13
33 31 28 31 31 30 28 28 27 26 21 20 20 19 20 21 22 21 18 17 17 18 14 19 19 19 28 50 68 74 90 65 35 32 31 34 32 38 41 34 31 23 21 18 16 15 9
42 35 35 37 38 38 36 29 31 29 24 25 22 21 22 22 23 23 22 21 22 17 21 18 20 21 18 15 21 58 75 81 94 46 35 34 41 36 41 39 34 28 24 17 12 9 8
48 46 42 45 48 46 45 37 26 25 22 25 21 18 19 22 21 22 21 21 17 16 18 17 17 17 16 18 20 15 38 67 87 97 85 46 30 36 44 46 42 40 41 26 17 14 10
58 61 59 56 48 43 38 27 21 21 21 20 17 18 17 21 20 17 16 14 13 12 11 11 10 10 10 10 12 14 18 26 71 99 98 96 63 39 37 42 56 42 38 58 53 48 42
62 64 64 62 58 52 34 23 18 18 20 19 19 18 17 19 17 16 15 15 14 13 12 12 11 10 9 8 8 8 8 12 21 67 100 87 91 78 46 37 41 56 62 56 55 51 48
58 59 54 51 57 44 34 26 20 20 21 21 21 20 18 19 18 18 18 17 15 13 12 10 9 8 7 7 7 6 6 7 8 19 73 89 90 90 88 56 46 52 57 70 76 68 60
54 56 63 54 38 34 29 26 24 24 24 25 24 23 22 22 22 24 24 19 18 16 10 8 8 7 5 4 5 4 3 5 6 11 40 73 82 78 94 97 85 45 43 54 71 71 69
55 59 61 57 53 46 40 34 31 31 31 30 29 29 30 31 29 28 28 27 23 20 15 9 6 4 4 3 3 3 3 4 8 16 22 75 89 65 67 87 77 100 80 52 59 78 50
60 53 51 49 45 44 43 41 37 36 36 36 35 33 32 33 33 31 28 24 20 15 9 6 4 4 4 4 5 4 5 6 5 8 26 54 58 65 46 83 100 92 97 99 91 70 29
58 57 55 54 52 48 47 46 46 44 42 41 39 36 35 33 30 27 24 19 13 7 5 4 3 6 12 7 22 16 26 19 21 42 62 68 38 74 58 84 100 99 98 97 97 90 99
74 69 65 61 58 55 52 50 46 44 42 42 41 37 32 32 31 26 20 12 6 5 4 4 6 11 27 34 82 28 91 83 54 88 100 100 96 100 44 46 87 92 87 90 97 79 97
61 58 57 53 50 48 47 47 45 43 41 39 33 30 27 28 24 17 9 5 5 8 7 10 10 10 10 12 22 92 100 96 96 76 94 98 99 100 92 98 94 100 54 83 96 97 97
50 50 49 48 48 48 48 47 44 45 40 31 20 17 18 19 9 5 5 6 11 18 16 15 17 17 18 21 17 16 12 34 93 97 96 81 97 79 91 100 99 74 74 78 92 96 97
42 42 44 47 49 49 49 48 40 35 22 14 8 6 6 7 4 6 10 13 18 25 24 21 25 29 36 38 27 20 23 21 26 71 100 100 100 100 100 98 98 96 99 90 97 100 100
37 41 44 48 51 51 48 39 12 10 10 10 3 6 8 6 6 14 20 29 27 33 33 34 49 89 100 79 50 31 36 73 63 89 92 100 100 100 100 100 99 96 100 100 100 100 100
36 45 49 52 45 38 22 10 8 6 4 3 4 10 14 12 11 28 76 78 79 64 55 71 100 100 80 66 63 72 81 74 100 87 85 95 100 100 100 100 100 92 100 100 100 100 100
58 63 60 47 35 19 9 6 6 6 7 7 8 12 17 30 23 100 100 94 73 60 80 100 100 86 73 80 100 100 99 100 96 100 100 99 98 99 100 100 100 100 100 100 100 100 100
51 41 31 13 7 5 6 8 9 11 12 11 12 19 30 98 96 100 100 100 91 76 88 100 100 86 82 97 96 100 100 100 100 100 100 100 100 100 100 99 100 100 100 100 100 100 100
Wind_Speed
12 11 12 11 11 11 11 12 14 15 16 17 17 18 18 19 19 19 19 20 19 19 20 19 20 20 21 20 16 14 16 18 21 22 24 24 23 23 23 21 18 16 15 14 13 12 12
12 14 15 15 15 15 15 16 17 18 19 20 21 22 22 22 23 23 23 23 23 23 21 21 21 22 21 22 21 18 18 19 20 23 24 27 26 26 25 25 23 21 19 18 16 15 15
15 15 16 17 18 19 20 20 20 21 22 23 24 25 26 26 26 26 26 26 26 25 25 24 24 24 24 23 24 22 20 19 19 22 26 28 30 30 28 29 27 24 23 22 20 20 19
20 21 20 20 20 21 21 22 24 24 25 25 26 27 29 29 30 29 28 28 27 27 27 27 25 25 25 27 26 26 24 23 21 20 25 29 32 34 33 32 31 30 27 25 22 25 23
22 23 23 25 25 25 25 25 24 25 26 27 29 30 30 30 30 31 30 30 31 30 29 28 28 28 26 28 29 30 30 27 26 26 25 27 32 35 36 35 35 33 32 30 29 28 28
22 23 26 28 27 28 29 30 29 29 29 30 31 32 33 34 34 34 34 33 32 32 32 31 28 29 28 29 29 31 33 34 32 32 30 30 33 37 37 36 36 39 37 36 34 33 35
27 27 28 28 28 30 31 32 33 34 34 35 36 36 36 36 37 37 38 38 37 34 32 32 31 30 31 32 33 32 35 37 38 37 37 36 37 36 37 41 41 43 41 39 40 42 43
35 35 36 38 38 36 34 33 35 35 35 36 36 38 39 39 39 38 38 39 41 42 38 35 34 33 31 30 31 35 37 38 39 39 42 44 43 37 42 41 44 44 44 44 46 45 49
42 43 41 42 42 43 42 41 41 41 39 39 41 42 41 41 41 42 42 42 43 43 43 36 34 35 35 35 33 30 34 37 39 41 42 46 42 39 41 43 46 45 46 45 49 51 52
46 47 46 45 46 47 47 47 48 48 46 46 46 47 47 46 45 45 45 44 45 46 47 45 34 32 32 30 25 26 28 32 35 37 38 42 37 41 42 45 46 50 48 48 51 54 55
48 49 49 49 47 49 51 50 50 53 53 53 52 52 53 51 50 50 50 52 51 51 51 44 39 32 33 34 38 33 32 32 32 32 33 34 36 39 43 42 46 48 50 49 52 56 57
48 48 48 46 48 47 50 47 51 50 53 50 53 56 55 56 54 53 53 53 54 55 59 54 48 42 39 38 41 40 37 35 34 38 39 35 36 34 34 36 40 44 45 46 49 53 62
49 49 49 49 51 51 51 51 51 51 51 51 51 52 52 52 55 53 55 55 56 57 55 57 54 51 48 50 46 44 41 39 40 39 37 39 33 36 34 35 36 37 37 41 47 53 57
52 51 54 58 56 56 54 53 51 50 49 52 50 49 50 51 50 53 54 56 56 56 55 56 56 57 58 54 52 51 49 45 40 43 43 43 42 40 35 34 36 36 39 43 45 45 48
58 59 60 59 59 57 53 51 50 50 49 49 50 50 50 49 51 52 54 57 57 56 56 57 57 58 58 59 56 57 55 53 48 43 47 47 49 43 41 42 39 42 45 35 45 43 48
59 59 58 59 58 55 54 53 50 51 50 51 50 51 51 49 50 52 56 59 60 60 63 65 65 63 61 61 63 63 60 59 56 52 49 51 55 52 47 46 48 48 43 45 46 50 51
56 54 52 49 52 51 51 52 54 53 53 53 54 55 55 55 56 58 60 59 59 61 63 64 67 66 65 66 65 64 64 66 63 57 54 56 57 57 55 53 47 48 52 49 49 52 55
53 51 48 48 50 53 54 54 56 56 55 56 56 58 59 59 61 63 63 61 65 66 64 64 66 67 68 66 66 67 67 66 67 62 59 60 63 62 59 59 57 57 55 57 58 56 54
56 54 54 54 56 58 57 58 59 59 59 61 62 62 62 63 66 66 67 68 70 69 67 64 62 63 63 65 66 66 67 69 67 67 65 63 65 67 67 67 64 60 62 59 58 57 59
58 60 59 60 62 61 60 57 60 62 61 62 65 69 69 70 71 70 70 71 71 67 64 64 64 64 63 63 62 65 62 66 69 71 68 69 72 73 72 67 66 67 64 65 64 65 59
62 62 62 64 66 67 66 65 63 63 66 69 71 70 71 73 73 73 70 70 68 64 64 62 63 56 58 62 59 60 59 60 64 65 65 67 73 72 74 73 72 70 68 66 71 66 67
67 68 66 66 68 69 69 70 69 68 70 72 71 72 72 72 75 74 72 70 59 55 61 59 56 53 55 56 55 57 54 54 58 59 56 52 54 60 74 74 75 75 69 73 72 69 63
69 69 69 68 69 70 71 72 71 71 71 71 69 70 71 71 70 70 67 60 57 52 52 48 49 51 52 52 57 57 54 53 56 58 64 64 58 49 53 55 63 68 75 70 66 67 67
74 72 72 72 72 70 71 71 72 73 72 70 65 66 68 65 62 57 57 56 50 44 47 43 45 47 47 49 51 52 55 59 58 47 54 54 55 61 53 46 56 56 65 66 65 66 67
76 74 72 73 73 73 74 73 72 72 68 63 57 56 55 60 56 52 48 47 45 43 42 42 42 44 43 44 47 47 45 45 46 49 40 43 44 51 51 63 56 45 46 54 59 60 60
75 74 74 74 74 75 73 71 63 60 58 56 52 50 50 52 48 42 40 40 40 41 41 39 37 37 37 38 39 42 41 37 40 45 36 36 30 41 48 46 53 47 43 40 42 46 43
81 81 79 78 72 69 66 59 55 54 53 54 50 45 42 43 37 32 32 35 35 36 38 35 30 33 35 35 36 37 35 36 35 37 39 40 31 29 31 34 35 43 39 32 33 35 34
83 81 80 75 71 66 59 55 51 49 47 49 44 37 36 37 33 31 30 27 27 30 29 29 30 30 31 33 31 31 35 35 35 28 29 30 27 24 25 26 26 29 31 30 28 27 29
86 78 73 67 62 56 50 47 45 44 42 41 33 29 27 25 23 24 28 21 22 28 27 29 29 29 32 32 33 33 28 32 30 37 31 28 28 25 22 19 16 15 17 20 23 24 25
Wind_Direction
270 261 255 256 260 260 258 256 254 255 262 269 275 281 286 289 291 295 298 300 299 298 294 291 287 283 285 280 275 282 290 291 277 256 250 249 248 254 259 259 261 264 264 266 266 267 268
287 283 279 271 266 265 265 268 267 265 265 269 274 278 280 282 286 290 292 294 296 297 296 295 289 286 286 286 283 284 285 287 289 263 254 251 248 250 253 257 256 256 257 259 263 267 269
288 289 289 290 284 278 275 273 273 274 277 278 276 275 277 278 278 280 284 286 288 291 295 294 292 288 285 284 281 279 278 278 285 275 259 255 253 252 251 256 255 253 256 258 262 266 269
284 285 287 288 289 289 285 280 278 276 274 275 277 279 281 282 281 280 278 280 280 282 284 287 287 285 283 278 277 275 271 273 275 278 266 259 257 256 256 256 256 257 258 262 265 270 276
291 287 288 289 285 280 280 281 282 282 281 281 280 280 280 281 281 282 282 283 282 281 279 278 278 279 278 277 277 275 274 267 270 272 270 266 261 260 258 260 258 260 263 263 267 270 275
306 297 293 292 286 283 279 280 280 281 281 280 282 283 285 286 286 286 287 287 287 288 290 287 282 279 276 273 272 272 272 272 265 266 271 272 267 262 260 261 264 265 257 265 267 264 271
307 304 301 302 300 294 285 281 278 279 279 279 281 282 282 284 286 288 290 289 289 286 288 290 291 287 282 275 271 268 269 269 270 269 269 269 270 266 263 257 258 260 264 263 267 268 271
304 301 300 300 300 298 295 290 289 287 284 281 281 284 286 286 285 285 286 287 288 287 286 289 290 292 291 286 282 276 271 270 269 269 270 272 271 266 260 260 256 259 260 264 267 268 270
293 294 292 292 293 292 292 289 289 287 288 285 284 284 285 286 287 286 287 287 287 286 286 284 286 291 290 287 286 284 274 271 271 270 272 269 269 263 263 261 260 259 261 264 267 266 269
287 286 284 282 282 279 277 279 280 279 279 280 280 282 285 286 286 288 289 288 287 288 286 287 290 287 286 284 282 290 285 277 274 271 267 267 264 268 263 262 262 260 263 262 265 267 270
284 281 279 278 280 277 274 275 276 274 275 277 276 279 282 283 284 285 286 287 288 287 284 287 293 290 286 281 284 286 281 275 274 269 266 270 267 268 266 264 263 265 263 264 264 268 268
283 282 281 282 281 279 278 278 278 277 275 274 276 274 276 278 277 280 280 283 284 285 287 290 291 292 286 282 280 281 281 278 277 270 270 269 268 270 271 266 261 264 267 267 265 265 265
290 288 284 281 281 280 279 279 279 279 278 276 277 278 279 278 279 280 281 279 280 279 287 288 292 292 288 286 282 279 277 277 280 278 272 266 270 267 269 270 266 267 269 268 264 263 267
290 287 285 288 288 286 282 282 281 279 278 279 280 280 280 280 281 280 279 278 279 281 283 282 286 287 287 287 283 282 277 275 275 278 277 278 275 268 265 265 265 263 262 261 268 271 271
292 290 286 286 286 286 285 284 283 280 279 279 278 279 279 279 281 282 282 282 284 286 286 283 280 280 282 282 284 283 281 278 272 271 277 277 273 271 266 263 261 261 260 268 264 266 267
291 290 290 288 288 292 290 288 284 283 281 280 279 280 279 279 279 282 284 287 289 288 286 285 284 283 280 280 280 280 280 277 273 270 269 271 276 272 267 262 258 259 261 260 261 266 267
289 288 288 289 284 286 284 283 283 283 281 281 282 282 284 284 285 285 287 288 287 287 286 286 285 283 282 281 278 276 276 275 273 272 270 270 271 273 273 267 262 260 260 259 262 262 265
287 286 287 288 287 287 284 282 284 284 283 283 282 284 286 286 288 289 291 290 287 287 286 283 283 282 282 278 276 276 274 270 272 266 264 265 266 266 272 269 267 261 257 256 256 257 263
291 291 293 295 294 295 294 287 284 284 284 284 285 285 286 288 289 289 288 288 287 288 287 286 285 281 279 277 277 275 274 272 267 265 260 258 260 264 263 266 266 266 267 263 261 258 262
295 295 295 294 294 294 292 288 285 285 285 286 286 288 288 288 289 290 289 288 288 288 289 288 287 285 283 278 274 277 270 267 266 266 263 259 256 256 259 265 271 270 267 263 257 257 265
294 294 295 294 293 292 292 293 290 287 288 289 289 288 286 287 289 290 291 291 291 291 288 284 282 278 276 276 273 276 273 268 264 266 269 265 260 261 258 255 263 267 270 267 266 268 259
294 294 293 291 290 290 290 291 290 288 287 287 287 287 289 290 292 292 293 293 290 286 284 283 279 276 273 273 272 272 265 268 264 257 261 260 262 264 262 260 261 264 266 269 268 263 269
293 292 292 291 291 290 290 289 289 288 288 288 289 288 288 291 293 293 292 289 285 281 280 278 277 277 275 274 270 265 267 268 266 265 265 267 267 267 265 263 263 260 261 268 271 265 263
295 294 293 292 292 290 289 289 288 288 290 291 292 291 292 294 291 289 284 282 281 279 278 276 276 276 277 278 278 277 275 270 264 266 267 268 271 265 265 274 274 265 261 266 267 268 266
292 292 290 289 288 287 287 288 290 290 291 292 292 289 288 291 288 284 282 279 276 275 274 274 275 278 278 280 282 283 284 282 271 259 273 271 267 264 271 275 279 275 262 263 265 265 264
288 286 285 285 286 287 289 291 293 292 292 291 290 286 284 286 286 279 276 274 272 270 269 271 274 278 281 287 287 287 289 285 282 252 262 269 255 265 262 271 274 285 268 264 265 261 260
284 283 283 284 287 290 292 292 291 290 289 290 287 281 277 277 279 272 275 277 270 272 273 271 270 276 282 283 285 285 283 279 279 276 271 275 273 269 267 270 263 277 269 267 263 262 260
284 285 286 288 289 289 288 286 284 284 282 283 281 274 269 268 269 264 268 272 283 286 268 266 272 278 282 282 282 287 283 278 271 269 260 263 265 279 278 275 273 265 266 266 262 256 257
283 284 284 284 284 282 281 279 281 279 278 278 273 265 260 255 247 254 261 275 281 290 270 269 274 279 284 285 281 284 290 282 282 265 268 261 267 277 278 273 268 246 246 258 260 259 253